Year,Month,Day,Hour,Minute,Value (Times are PST for temperature in C)
2021,06,28,00,00,28.80
2021,06,28,00,01,28.80
2021,06,28,00,02,28.80
2021,06,28,00,03,28.80
2021,06,28,00,04,28.80
2021,06,28,00,05,28.80
2021,06,28,00,06,28.90
2021,06,28,00,07,28.90
2021,06,28,00,08,28.90
2021,06,28,00,09,28.90
2021,06,28,00,10,28.90
2021,06,28,00,11,28.90
2021,06,28,00,12,28.90
2021,06,28,00,13,28.90
2021,06,28,00,14,28.90
2021,06,28,00,15,29.00
2021,06,28,00,16,29.10
2021,06,28,00,17,29.10
2021,06,28,00,18,29.10
2021,06,28,00,19,29.10
2021,06,28,00,20,29.10
2021,06,28,00,21,29.10
2021,06,28,00,22,29.10
2021,06,28,00,23,29.10
2021,06,28,00,24,29.10
2021,06,28,00,25,29.10
2021,06,28,00,26,29.00
2021,06,28,00,27,28.90
2021,06,28,00,28,28.90
2021,06,28,00,29,28.90
2021,06,28,00,30,28.90
2021,06,28,00,31,28.90
2021,06,28,00,32,28.90
2021,06,28,00,33,29.10
2021,06,28,00,34,29.10
2021,06,28,00,35,29.10
2021,06,28,00,36,29.10
2021,06,28,00,37,29.10
2021,06,28,00,38,29.10
2021,06,28,00,39,29.10
2021,06,28,00,40,29.20
2021,06,28,00,41,29.20
2021,06,28,00,42,29.20
2021,06,28,00,43,29.30
2021,06,28,00,44,29.30
2021,06,28,00,45,29.30
2021,06,28,00,46,29.30
2021,06,28,00,47,29.20
2021,06,28,00,48,29.10
2021,06,28,00,49,29.00
2021,06,28,00,50,28.90
2021,06,28,00,51,28.90
2021,06,28,00,52,28.90
2021,06,28,00,53,28.90
2021,06,28,00,54,28.90
2021,06,28,00,55,28.90
2021,06,28,00,56,28.90
2021,06,28,00,57,28.90
2021,06,28,00,58,28.90
2021,06,28,00,59,28.90
2021,06,28,01,00,28.90
2021,06,28,01,01,28.90
2021,06,28,01,02,28.90
2021,06,28,01,03,28.90
2021,06,28,01,04,28.90
2021,06,28,01,05,28.90
2021,06,28,01,06,28.80
2021,06,28,01,07,28.60
2021,06,28,01,08,28.50
2021,06,28,01,09,28.40
2021,06,28,01,10,28.30
2021,06,28,01,11,28.20
2021,06,28,01,12,28.10
2021,06,28,01,13,28.10
2021,06,28,01,14,28.10
2021,06,28,01,15,28.00
2021,06,28,01,16,28.00
2021,06,28,01,17,27.90
2021,06,28,01,18,27.70
2021,06,28,01,19,27.60
2021,06,28,01,20,27.40
2021,06,28,01,21,27.30
2021,06,28,01,22,27.20
2021,06,28,01,23,27.10
2021,06,28,01,24,26.90
2021,06,28,01,25,26.80
2021,06,28,01,26,26.70
2021,06,28,01,27,26.60
2021,06,28,01,28,26.50
2021,06,28,01,29,26.40
2021,06,28,01,30,26.20
2021,06,28,01,31,26.20
2021,06,28,01,32,26.10
2021,06,28,01,33,26.00
2021,06,28,01,34,25.90
2021,06,28,01,35,25.90
2021,06,28,01,36,25.80
2021,06,28,01,37,25.80
2021,06,28,01,38,25.70
2021,06,28,01,39,25.60
2021,06,28,01,40,25.60
2021,06,28,01,41,25.50
2021,06,28,01,42,25.40
2021,06,28,01,43,25.30
2021,06,28,01,44,25.20
2021,06,28,01,45,25.20
2021,06,28,01,46,25.10
2021,06,28,01,47,25.10
2021,06,28,01,48,25.10
2021,06,28,01,49,25.10
2021,06,28,01,50,25.20
2021,06,28,01,51,25.20
2021,06,28,01,52,25.30
2021,06,28,01,53,25.40
2021,06,28,01,54,25.50
2021,06,28,01,55,25.50
2021,06,28,01,56,25.50
2021,06,28,01,57,25.60
2021,06,28,01,58,25.60
2021,06,28,01,59,25.50
2021,06,28,02,00,25.50
2021,06,28,02,01,25.50
2021,06,28,02,02,25.50
2021,06,28,02,03,25.40
2021,06,28,02,04,25.40
2021,06,28,02,05,25.40
2021,06,28,02,06,25.40
2021,06,28,02,07,25.40
2021,06,28,02,08,25.30
2021,06,28,02,09,25.30
2021,06,28,02,10,25.30
2021,06,28,02,11,25.30
2021,06,28,02,12,25.30
2021,06,28,02,13,25.20
2021,06,28,02,14,25.20
2021,06,28,02,15,25.20
2021,06,28,02,16,25.30
2021,06,28,02,17,25.30
2021,06,28,02,18,25.30
2021,06,28,02,19,25.30
2021,06,28,02,20,25.30
2021,06,28,02,21,25.30
2021,06,28,02,22,25.20
2021,06,28,02,23,25.20
2021,06,28,02,24,25.20
2021,06,28,02,25,25.10
2021,06,28,02,26,25.10
2021,06,28,02,27,25.10
2021,06,28,02,28,25.10
2021,06,28,02,29,25.10
2021,06,28,02,30,25.10
2021,06,28,02,31,25.00
2021,06,28,02,32,25.00
2021,06,28,02,33,25.00
2021,06,28,02,34,24.90
2021,06,28,02,35,24.90
2021,06,28,02,36,24.90
2021,06,28,02,37,24.90
2021,06,28,02,38,24.90
2021,06,28,02,39,24.90
2021,06,28,02,40,24.90
2021,06,28,02,41,24.90
2021,06,28,02,42,24.90
2021,06,28,02,43,24.90
2021,06,28,02,44,24.80
2021,06,28,02,45,24.80
2021,06,28,02,46,24.80
2021,06,28,02,47,24.70
2021,06,28,02,48,24.70
2021,06,28,02,49,24.60
2021,06,28,02,50,24.60
2021,06,28,02,51,24.50
2021,06,28,02,52,24.50
2021,06,28,02,53,24.50
2021,06,28,02,54,24.50
2021,06,28,02,55,24.40
2021,06,28,02,56,24.40
2021,06,28,02,57,24.40
2021,06,28,02,58,24.30
2021,06,28,02,59,24.30
2021,06,28,03,00,24.30
2021,06,28,03,01,24.30
2021,06,28,03,02,24.30
2021,06,28,03,03,24.30
2021,06,28,03,04,24.30
2021,06,28,03,05,24.30
2021,06,28,03,06,24.30
2021,06,28,03,07,24.30
2021,06,28,03,08,24.30
2021,06,28,03,09,24.30
2021,06,28,03,10,24.30
2021,06,28,03,11,24.30
2021,06,28,03,12,24.40
2021,06,28,03,13,24.40
2021,06,28,03,14,24.40
2021,06,28,03,15,24.40
2021,06,28,03,16,24.40
2021,06,28,03,17,24.40
2021,06,28,03,18,24.40
2021,06,28,03,19,24.40
2021,06,28,03,20,24.40
2021,06,28,03,21,24.40
2021,06,28,03,22,24.40
2021,06,28,03,23,24.40
2021,06,28,03,24,24.40
2021,06,28,03,25,24.40
2021,06,28,03,26,24.40
2021,06,28,03,27,24.30
2021,06,28,03,28,24.30
2021,06,28,03,29,24.20
2021,06,28,03,30,24.10
2021,06,28,03,31,24.10
2021,06,28,03,32,24.10
2021,06,28,03,33,24.00
2021,06,28,03,34,23.90
2021,06,28,03,35,23.90
2021,06,28,03,36,23.80
2021,06,28,03,37,23.80
2021,06,28,03,38,23.70
2021,06,28,03,39,23.80
2021,06,28,03,40,23.90
2021,06,28,03,41,23.90
2021,06,28,03,42,24.10
2021,06,28,03,43,24.20
2021,06,28,03,44,24.40
2021,06,28,03,45,24.50
2021,06,28,03,46,24.70
2021,06,28,03,47,24.90
2021,06,28,03,48,25.00
2021,06,28,03,49,25.10
2021,06,28,03,50,25.20
2021,06,28,03,51,25.30
2021,06,28,03,52,25.30
2021,06,28,03,53,25.30
2021,06,28,03,54,25.30
2021,06,28,03,55,25.30
2021,06,28,03,56,25.30
2021,06,28,03,57,25.30
2021,06,28,03,58,25.30
2021,06,28,03,59,25.30
2021,06,28,04,00,25.30
2021,06,28,04,01,25.30
2021,06,28,04,02,25.30
2021,06,28,04,03,25.30
2021,06,28,04,04,25.30
2021,06,28,04,05,25.30
2021,06,28,04,06,25.30
2021,06,28,04,07,25.30
2021,06,28,04,08,25.40
2021,06,28,04,09,25.40
2021,06,28,04,10,25.40
2021,06,28,04,11,25.40
2021,06,28,04,12,25.40
2021,06,28,04,13,25.30
2021,06,28,04,14,25.30
2021,06,28,04,15,25.20
2021,06,28,04,16,25.10
2021,06,28,04,17,25.00
2021,06,28,04,18,24.90
2021,06,28,04,19,24.90
2021,06,28,04,20,24.80
2021,06,28,04,21,24.60
2021,06,28,04,22,24.50
2021,06,28,04,23,24.40
2021,06,28,04,24,24.20
2021,06,28,04,25,24.10
2021,06,28,04,26,23.90
2021,06,28,04,27,23.80
2021,06,28,04,28,23.70
2021,06,28,04,29,23.50
2021,06,28,04,30,23.40
2021,06,28,04,31,23.30
2021,06,28,04,32,23.30
2021,06,28,04,33,23.20
2021,06,28,04,34,23.20
2021,06,28,04,35,23.10
2021,06,28,04,36,23.10
2021,06,28,04,37,22.90
2021,06,28,04,38,22.90
2021,06,28,04,39,22.90
2021,06,28,04,40,22.90
2021,06,28,04,41,22.90
2021,06,28,04,42,22.80
2021,06,28,04,43,22.80
2021,06,28,04,44,22.80
2021,06,28,04,45,22.80
2021,06,28,04,46,22.70
2021,06,28,04,47,22.70
2021,06,28,04,48,22.70
2021,06,28,04,49,22.70
2021,06,28,04,50,22.60
2021,06,28,04,51,22.60
2021,06,28,04,52,22.60
2021,06,28,04,53,22.50
2021,06,28,04,54,22.50
2021,06,28,04,55,22.40
2021,06,28,04,56,22.40
2021,06,28,04,57,22.40
2021,06,28,04,58,22.40
2021,06,28,04,59,22.40
2021,06,28,05,00,22.40
2021,06,28,05,01,22.40
2021,06,28,05,02,22.30
2021,06,28,05,03,22.30
2021,06,28,05,04,22.20
2021,06,28,05,05,22.20
2021,06,28,05,06,22.20
2021,06,28,05,07,22.20
2021,06,28,05,08,22.20
2021,06,28,05,09,22.20
2021,06,28,05,10,22.20
2021,06,28,05,11,22.20
2021,06,28,05,12,22.10
2021,06,28,05,13,22.10
2021,06,28,05,14,22.10
2021,06,28,05,15,22.10
2021,06,28,05,16,22.10
2021,06,28,05,17,22.10
2021,06,28,05,18,22.10
2021,06,28,05,19,22.00
2021,06,28,05,20,22.00
2021,06,28,05,21,22.00
2021,06,28,05,22,22.00
2021,06,28,05,23,21.90
2021,06,28,05,24,21.90
2021,06,28,05,25,21.90
2021,06,28,05,26,21.80
2021,06,28,05,27,21.80
2021,06,28,05,28,21.80
2021,06,28,05,29,21.80
2021,06,28,05,30,21.80
2021,06,28,05,31,21.80
2021,06,28,05,32,21.80
2021,06,28,05,33,21.80
2021,06,28,05,34,21.80
2021,06,28,05,35,21.80
2021,06,28,05,36,21.80
2021,06,28,05,37,21.90
2021,06,28,05,38,21.90
2021,06,28,05,39,21.90
2021,06,28,05,40,22.00
2021,06,28,05,41,22.00
2021,06,28,05,42,22.00
2021,06,28,05,43,22.00
2021,06,28,05,44,22.00
2021,06,28,05,45,22.00
2021,06,28,05,46,22.00
2021,06,28,05,47,22.00
2021,06,28,05,48,22.00
2021,06,28,05,49,22.10
2021,06,28,05,50,22.10
2021,06,28,05,51,22.10
2021,06,28,05,52,22.10
2021,06,28,05,53,22.20
2021,06,28,05,54,22.30
2021,06,28,05,55,22.40
2021,06,28,05,56,22.60
2021,06,28,05,57,22.70
2021,06,28,05,58,22.90
2021,06,28,05,59,23.00
2021,06,28,06,00,23.20
2021,06,28,06,01,23.30
2021,06,28,06,02,23.50
2021,06,28,06,03,23.60
2021,06,28,06,04,23.70
2021,06,28,06,05,23.80
2021,06,28,06,06,23.90
2021,06,28,06,07,24.00
2021,06,28,06,08,24.10
2021,06,28,06,09,24.10
2021,06,28,06,10,24.20
2021,06,28,06,11,24.20
2021,06,28,06,12,24.20
2021,06,28,06,13,24.20
2021,06,28,06,14,24.20
2021,06,28,06,15,24.20
2021,06,28,06,16,24.20
2021,06,28,06,17,24.20
2021,06,28,06,18,24.20
2021,06,28,06,19,24.20
2021,06,28,06,20,24.20
2021,06,28,06,21,24.20
2021,06,28,06,22,24.20
2021,06,28,06,23,24.20
2021,06,28,06,24,24.20
2021,06,28,06,25,24.20
2021,06,28,06,26,24.30
2021,06,28,06,27,24.30
2021,06,28,06,28,24.30
2021,06,28,06,29,24.40
2021,06,28,06,30,24.40
2021,06,28,06,31,24.40
2021,06,28,06,32,24.50
2021,06,28,06,33,24.50
2021,06,28,06,34,24.50
2021,06,28,06,35,24.50
2021,06,28,06,36,24.50
2021,06,28,06,37,24.50
2021,06,28,06,38,24.50
2021,06,28,06,39,24.50
2021,06,28,06,40,24.60
2021,06,28,06,41,24.60
2021,06,28,06,42,24.60
2021,06,28,06,43,24.60
2021,06,28,06,44,24.70
2021,06,28,06,45,24.70
2021,06,28,06,46,24.70
2021,06,28,06,47,24.80
2021,06,28,06,48,24.80
2021,06,28,06,49,24.80
2021,06,28,06,50,24.80
2021,06,28,06,51,24.80
2021,06,28,06,52,24.80
2021,06,28,06,53,24.80
2021,06,28,06,54,24.80
2021,06,28,06,55,24.80
2021,06,28,06,56,24.70
2021,06,28,06,57,24.70
2021,06,28,06,58,24.70
2021,06,28,06,59,24.80
2021,06,28,07,00,24.80
2021,06,28,07,01,24.80
2021,06,28,07,02,24.90
2021,06,28,07,03,24.90
2021,06,28,07,04,25.00
2021,06,28,07,05,25.10
2021,06,28,07,06,25.20
2021,06,28,07,07,25.20
2021,06,28,07,08,25.30
2021,06,28,07,09,25.30
2021,06,28,07,10,25.40
2021,06,28,07,11,25.50
2021,06,28,07,12,25.50
2021,06,28,07,13,25.60
2021,06,28,07,14,25.60
2021,06,28,07,15,25.60
2021,06,28,07,16,25.70
2021,06,28,07,17,25.70
2021,06,28,07,18,25.70
2021,06,28,07,19,25.70
2021,06,28,07,20,25.80
2021,06,28,07,21,25.80
2021,06,28,07,22,25.80
2021,06,28,07,23,25.80
2021,06,28,07,24,25.90
2021,06,28,07,25,25.90
2021,06,28,07,26,25.90
2021,06,28,07,27,25.90
2021,06,28,07,28,26.00
2021,06,28,07,29,26.00
2021,06,28,07,30,26.00
2021,06,28,07,31,26.00
2021,06,28,07,32,26.00
2021,06,28,07,33,26.10
2021,06,28,07,34,26.10
2021,06,28,07,35,26.20
2021,06,28,07,36,26.20
2021,06,28,07,37,26.30
2021,06,28,07,38,26.40
2021,06,28,07,39,26.40
2021,06,28,07,40,26.50
2021,06,28,07,41,26.60
2021,06,28,07,42,26.60
2021,06,28,07,43,26.60
2021,06,28,07,44,26.60
2021,06,28,07,45,26.60
2021,06,28,07,46,26.60
2021,06,28,07,47,26.60
2021,06,28,07,48,26.60
2021,06,28,07,49,26.60
2021,06,28,07,50,26.60
2021,06,28,07,51,26.60
2021,06,28,07,52,26.60
2021,06,28,07,53,26.60
2021,06,28,07,54,26.60
2021,06,28,07,55,26.60
2021,06,28,07,56,26.60
2021,06,28,07,57,26.60
2021,06,28,07,58,26.60
2021,06,28,07,59,26.70
2021,06,28,08,00,26.70
2021,06,28,08,01,26.70
2021,06,28,08,02,26.80
2021,06,28,08,03,26.80
2021,06,28,08,04,26.90
2021,06,28,08,05,26.90
2021,06,28,08,06,26.90
2021,06,28,08,07,27.10
2021,06,28,08,08,27.10
2021,06,28,08,09,27.10
2021,06,28,08,10,27.10
2021,06,28,08,11,27.10
2021,06,28,08,12,27.00
2021,06,28,08,13,27.00
2021,06,28,08,14,27.10
2021,06,28,08,15,27.10
2021,06,28,08,16,27.10
2021,06,28,08,17,27.10
2021,06,28,08,18,27.20
2021,06,28,08,19,27.20
2021,06,28,08,20,27.20
2021,06,28,08,21,27.20
2021,06,28,08,22,27.30
2021,06,28,08,23,27.30
2021,06,28,08,24,27.30
2021,06,28,08,25,27.30
2021,06,28,08,26,27.30
2021,06,28,08,27,27.30
2021,06,28,08,28,27.30
2021,06,28,08,29,27.30
2021,06,28,08,30,27.40
2021,06,28,08,31,27.50
2021,06,28,08,32,27.60
2021,06,28,08,33,27.70
2021,06,28,08,34,27.70
2021,06,28,08,35,27.70
2021,06,28,08,36,27.70
2021,06,28,08,37,27.70
2021,06,28,08,38,27.70
2021,06,28,08,39,27.80
2021,06,28,08,40,27.80
2021,06,28,08,41,27.80
2021,06,28,08,42,27.90
2021,06,28,08,43,27.90
2021,06,28,08,44,28.00
2021,06,28,08,45,28.00
2021,06,28,08,46,28.10
2021,06,28,08,47,28.10
2021,06,28,08,48,28.10
2021,06,28,08,49,28.10
2021,06,28,08,50,28.00
2021,06,28,08,51,28.00
2021,06,28,08,52,28.00
2021,06,28,08,53,28.00
2021,06,28,08,54,28.00
2021,06,28,08,55,28.00
2021,06,28,08,56,28.00
2021,06,28,08,57,28.00
2021,06,28,08,58,27.90
2021,06,28,08,59,27.90
2021,06,28,09,00,27.90
2021,06,28,09,01,27.90
2021,06,28,09,02,27.90
2021,06,28,09,03,27.80
2021,06,28,09,04,27.80
2021,06,28,09,05,27.80
2021,06,28,09,06,27.80
2021,06,28,09,07,27.80
2021,06,28,09,08,27.80
2021,06,28,09,09,27.90
2021,06,28,09,10,27.90
2021,06,28,09,11,27.90
2021,06,28,09,12,27.80
2021,06,28,09,13,27.80
2021,06,28,09,14,27.80
2021,06,28,09,15,27.90
2021,06,28,09,16,27.90
2021,06,28,09,17,28.00
2021,06,28,09,18,28.00
2021,06,28,09,19,28.10
2021,06,28,09,20,28.10
2021,06,28,09,21,28.20
2021,06,28,09,22,28.20
2021,06,28,09,23,28.30
2021,06,28,09,24,28.40
2021,06,28,09,25,28.50
2021,06,28,09,26,28.60
2021,06,28,09,27,28.60
2021,06,28,09,28,28.70
2021,06,28,09,29,28.70
2021,06,28,09,30,28.70
2021,06,28,09,31,28.70
2021,06,28,09,32,28.80
2021,06,28,09,33,28.80
2021,06,28,09,34,28.80
2021,06,28,09,35,28.80
2021,06,28,09,36,28.80
2021,06,28,09,37,28.80
2021,06,28,09,38,28.80
2021,06,28,09,39,28.80
2021,06,28,09,40,28.80
2021,06,28,09,41,28.80
2021,06,28,09,42,28.90
2021,06,28,09,43,28.90
2021,06,28,09,44,28.90
2021,06,28,09,45,29.00
2021,06,28,09,46,29.10
2021,06,28,09,47,29.10
2021,06,28,09,48,29.20
2021,06,28,09,49,29.20
2021,06,28,09,50,29.30
2021,06,28,09,51,29.30
2021,06,28,09,52,29.40
2021,06,28,09,53,29.40
2021,06,28,09,54,29.40
2021,06,28,09,55,29.40
2021,06,28,09,56,29.50
2021,06,28,09,57,29.50
2021,06,28,09,58,29.50
2021,06,28,09,59,29.60
2021,06,28,10,00,29.60
2021,06,28,10,01,29.60
2021,06,28,10,02,29.60
2021,06,28,10,03,29.60
2021,06,28,10,04,29.50
2021,06,28,10,05,29.50
2021,06,28,10,06,29.50
2021,06,28,10,07,29.50
2021,06,28,10,08,29.50
2021,06,28,10,09,29.50
2021,06,28,10,10,29.50
2021,06,28,10,11,29.60
2021,06,28,10,12,29.60
2021,06,28,10,13,29.40
2021,06,28,10,14,29.40
2021,06,28,10,15,29.30
2021,06,28,10,16,29.30
2021,06,28,10,17,29.30
2021,06,28,10,18,29.30
2021,06,28,10,19,29.30
2021,06,28,10,20,29.30
2021,06,28,10,21,29.30
2021,06,28,10,22,29.30
2021,06,28,10,23,29.30
2021,06,28,10,24,29.40
2021,06,28,10,25,29.40
2021,06,28,10,26,29.50
2021,06,28,10,27,29.50
2021,06,28,10,28,29.40
2021,06,28,10,29,29.40
2021,06,28,10,30,29.40
2021,06,28,10,31,29.40
2021,06,28,10,32,29.40
2021,06,28,10,33,29.40
2021,06,28,10,34,29.30
2021,06,28,10,35,29.20
2021,06,28,10,36,29.10
2021,06,28,10,37,29.00
2021,06,28,10,38,28.90
2021,06,28,10,39,28.90
2021,06,28,10,40,28.90
2021,06,28,10,41,28.90
2021,06,28,10,42,29.10
2021,06,28,10,43,29.10
2021,06,28,10,44,29.10
2021,06,28,10,45,29.10
2021,06,28,10,46,29.20
2021,06,28,10,47,29.20
2021,06,28,10,48,29.30
2021,06,28,10,49,29.30
2021,06,28,10,50,29.30
2021,06,28,10,51,29.30
2021,06,28,10,52,29.30
2021,06,28,10,53,29.30
2021,06,28,10,54,29.30
2021,06,28,10,55,29.30
2021,06,28,10,56,29.30
2021,06,28,10,57,29.30
2021,06,28,10,58,29.30
2021,06,28,10,59,29.40
2021,06,28,11,00,29.40
2021,06,28,11,01,29.60
2021,06,28,11,02,29.60
2021,06,28,11,03,29.60
2021,06,28,11,04,29.60
2021,06,28,11,05,29.60
2021,06,28,11,06,29.60
2021,06,28,11,07,29.60
2021,06,28,11,08,29.60
2021,06,28,11,09,29.60
2021,06,28,11,10,29.50
2021,06,28,11,11,29.50
2021,06,28,11,12,29.40
2021,06,28,11,13,29.30
2021,06,28,11,14,29.30
2021,06,28,11,15,29.30
2021,06,28,11,16,29.40
2021,06,28,11,17,29.50
2021,06,28,11,18,29.60
2021,06,28,11,19,29.70
2021,06,28,11,20,29.80
2021,06,28,11,21,29.80
2021,06,28,11,22,29.90
2021,06,28,11,23,29.90
2021,06,28,11,24,29.90
2021,06,28,11,25,29.90
2021,06,28,11,26,29.90
2021,06,28,11,27,29.90
2021,06,28,11,28,29.80
2021,06,28,11,29,29.80
2021,06,28,11,30,29.80
2021,06,28,11,31,29.70
2021,06,28,11,32,29.60
2021,06,28,11,33,29.60
2021,06,28,11,34,29.60
2021,06,28,11,35,29.60
2021,06,28,11,36,29.60
2021,06,28,11,37,29.60
2021,06,28,11,38,29.60
2021,06,28,11,39,29.60
2021,06,28,11,40,29.70
2021,06,28,11,41,29.70
2021,06,28,11,42,29.70
2021,06,28,11,43,29.70
2021,06,28,11,44,29.60
2021,06,28,11,45,29.60
2021,06,28,11,46,29.60
2021,06,28,11,47,29.50
2021,06,28,11,48,29.50
2021,06,28,11,49,29.50
2021,06,28,11,50,29.50
2021,06,28,11,51,29.60
2021,06,28,11,52,29.70
2021,06,28,11,53,29.70
2021,06,28,11,54,29.80
2021,06,28,11,55,29.90
2021,06,28,11,56,30.00
2021,06,28,11,57,30.10
2021,06,28,11,58,30.20
2021,06,28,11,59,30.30
2021,06,28,12,00,30.40
2021,06,28,12,01,30.50
2021,06,28,12,02,30.70
2021,06,28,12,03,30.70
2021,06,28,12,04,30.70
2021,06,28,12,05,30.70
2021,06,28,12,06,30.60
2021,06,28,12,07,30.50
2021,06,28,12,08,30.30
2021,06,28,12,09,30.30
2021,06,28,12,10,30.30
2021,06,28,12,11,30.30
2021,06,28,12,12,30.30
2021,06,28,12,13,30.30
2021,06,28,12,14,30.30
2021,06,28,12,15,30.20
2021,06,28,12,16,30.20
2021,06,28,12,17,30.20
2021,06,28,12,18,30.30
2021,06,28,12,19,30.30
2021,06,28,12,20,30.50
2021,06,28,12,21,30.60
2021,06,28,12,22,30.70
2021,06,28,12,23,30.80
2021,06,28,12,24,30.90
2021,06,28,12,25,31.00
2021,06,28,12,26,31.10
2021,06,28,12,27,31.20
2021,06,28,12,28,31.20
2021,06,28,12,29,31.20
2021,06,28,12,30,31.20
2021,06,28,12,31,31.20
2021,06,28,12,32,31.30
2021,06,28,12,33,31.40
2021,06,28,12,34,31.60
2021,06,28,12,35,31.60
2021,06,28,12,36,31.60
2021,06,28,12,37,31.70
2021,06,28,12,38,31.70
2021,06,28,12,39,31.70
2021,06,28,12,40,31.80
2021,06,28,12,41,31.90
2021,06,28,12,42,32.00
2021,06,28,12,43,32.20
2021,06,28,12,44,32.20
2021,06,28,12,45,32.40
2021,06,28,12,46,32.50
2021,06,28,12,47,32.60
2021,06,28,12,48,32.80
2021,06,28,12,49,32.80
2021,06,28,12,50,32.80
2021,06,28,12,51,32.90
2021,06,28,12,52,33.00
2021,06,28,12,53,33.00
2021,06,28,12,54,33.00
2021,06,28,12,55,33.00
2021,06,28,12,56,33.00
2021,06,28,12,57,33.00
2021,06,28,12,58,33.00
2021,06,28,12,59,32.90
2021,06,28,13,00,32.90
2021,06,28,13,01,32.90
2021,06,28,13,02,32.90
2021,06,28,13,03,32.90
2021,06,28,13,04,33.00
2021,06,28,13,05,33.10
2021,06,28,13,06,33.10
2021,06,28,13,07,33.20
2021,06,28,13,08,33.20
2021,06,28,13,09,33.20
2021,06,28,13,10,33.20
2021,06,28,13,11,33.20
2021,06,28,13,12,33.20
2021,06,28,13,13,33.10
2021,06,28,13,14,33.10
2021,06,28,13,15,33.10
2021,06,28,13,16,33.00
2021,06,28,13,17,33.00
2021,06,28,13,18,33.00
2021,06,28,13,19,33.00
2021,06,28,13,20,33.00
2021,06,28,13,21,33.00
2021,06,28,13,22,32.90
2021,06,28,13,23,32.90
2021,06,28,13,24,32.90
2021,06,28,13,25,32.90
2021,06,28,13,26,32.90
2021,06,28,13,27,32.90
2021,06,28,13,28,32.90
2021,06,28,13,29,33.00
2021,06,28,13,30,33.00
2021,06,28,13,31,33.10
2021,06,28,13,32,33.20
2021,06,28,13,33,33.20
2021,06,28,13,34,33.40
2021,06,28,13,35,33.40
2021,06,28,13,36,33.40
2021,06,28,13,37,33.40
2021,06,28,13,38,33.40
2021,06,28,13,39,33.50
2021,06,28,13,40,33.50
2021,06,28,13,41,33.60
2021,06,28,13,42,33.60
2021,06,28,13,43,33.60
2021,06,28,13,44,33.60
2021,06,28,13,45,33.60
2021,06,28,13,46,33.60
2021,06,28,13,47,33.50
2021,06,28,13,48,33.60
2021,06,28,13,49,33.60
2021,06,28,13,50,33.60
2021,06,28,13,51,33.60
2021,06,28,13,52,33.60
2021,06,28,13,53,33.60
2021,06,28,13,54,33.60
2021,06,28,13,55,33.60
2021,06,28,13,56,33.60
2021,06,28,13,57,33.60
2021,06,28,13,58,33.60
2021,06,28,13,59,33.60
2021,06,28,14,00,33.60
2021,06,28,14,01,33.60
2021,06,28,14,02,33.60
2021,06,28,14,03,33.50
2021,06,28,14,04,33.60
2021,06,28,14,05,33.60
2021,06,28,14,06,33.60
2021,06,28,14,07,33.70
2021,06,28,14,08,33.70
2021,06,28,14,09,33.80
2021,06,28,14,10,33.80
2021,06,28,14,11,33.90
2021,06,28,14,12,34.00
2021,06,28,14,13,34.00
2021,06,28,14,14,34.10
2021,06,28,14,15,34.00
2021,06,28,14,16,34.00
2021,06,28,14,17,33.90
2021,06,28,14,18,34.00
2021,06,28,14,19,34.10
2021,06,28,14,20,34.10
2021,06,28,14,21,34.10
2021,06,28,14,22,34.10
2021,06,28,14,23,34.10
2021,06,28,14,24,34.10
2021,06,28,14,25,34.20
2021,06,28,14,26,34.30
2021,06,28,14,27,34.50
2021,06,28,14,28,34.60
2021,06,28,14,29,34.70
2021,06,28,14,30,34.70
2021,06,28,14,31,34.50
2021,06,28,14,32,34.40
2021,06,28,14,33,34.30
2021,06,28,14,34,34.20
2021,06,28,14,35,34.10
2021,06,28,14,36,34.00
2021,06,28,14,37,34.00
2021,06,28,14,38,34.00
2021,06,28,14,39,34.00
2021,06,28,14,40,34.00
2021,06,28,14,41,34.10
2021,06,28,14,42,34.20
2021,06,28,14,43,34.30
2021,06,28,14,44,34.30
2021,06,28,14,45,34.30
2021,06,28,14,46,34.20
2021,06,28,14,47,34.30
2021,06,28,14,48,34.20
2021,06,28,14,49,34.20
2021,06,28,14,50,34.30
2021,06,28,14,51,34.30
2021,06,28,14,52,34.40
2021,06,28,14,53,34.60
2021,06,28,14,54,34.60
2021,06,28,14,55,34.70
2021,06,28,14,56,34.80
2021,06,28,14,57,34.80
2021,06,28,14,58,34.80
2021,06,28,14,59,34.70
2021,06,28,15,00,34.70
2021,06,28,15,01,34.70
2021,06,28,15,02,34.60
2021,06,28,15,03,34.50
2021,06,28,15,04,34.40
2021,06,28,15,05,34.50
2021,06,28,15,06,34.60
2021,06,28,15,07,34.70
2021,06,28,15,08,34.80
2021,06,28,15,09,34.80
2021,06,28,15,10,34.80
2021,06,28,15,11,34.80
2021,06,28,15,12,34.80
2021,06,28,15,13,34.70
2021,06,28,15,14,34.60
2021,06,28,15,15,34.60
2021,06,28,15,16,34.50
2021,06,28,15,17,34.40
2021,06,28,15,18,34.60
2021,06,28,15,19,34.60
2021,06,28,15,20,34.60
2021,06,28,15,21,34.60
2021,06,28,15,22,34.60
2021,06,28,15,23,34.70
2021,06,28,15,24,34.70
2021,06,28,15,25,34.80
2021,06,28,15,26,34.80
2021,06,28,15,27,34.80
2021,06,28,15,28,34.80
2021,06,28,15,29,34.90
2021,06,28,15,30,35.00
2021,06,28,15,31,35.10
2021,06,28,15,32,35.10
2021,06,28,15,33,35.10
2021,06,28,15,34,35.20
2021,06,28,15,35,35.30
2021,06,28,15,36,35.20
2021,06,28,15,37,35.20
2021,06,28,15,38,35.20
2021,06,28,15,39,35.20
2021,06,28,15,40,35.20
2021,06,28,15,41,35.30
2021,06,28,15,42,35.30
2021,06,28,15,43,35.30
2021,06,28,15,44,35.50
2021,06,28,15,45,35.50
2021,06,28,15,46,35.50
2021,06,28,15,47,35.50
2021,06,28,15,48,35.50
2021,06,28,15,49,35.40
2021,06,28,15,50,35.30
2021,06,28,15,51,35.20
2021,06,28,15,52,35.10
2021,06,28,15,53,35.00
2021,06,28,15,54,34.90
2021,06,28,15,55,34.90
2021,06,28,15,56,34.90
2021,06,28,15,57,35.00
2021,06,28,15,58,35.10
2021,06,28,15,59,35.10
2021,06,28,16,00,35.30
2021,06,28,16,01,35.30
2021,06,28,16,02,35.30
2021,06,28,16,03,35.30
2021,06,28,16,04,35.30
2021,06,28,16,05,35.40
2021,06,28,16,06,35.50
2021,06,28,16,07,35.50
2021,06,28,16,08,35.60
2021,06,28,16,09,35.60
2021,06,28,16,10,35.60
2021,06,28,16,11,35.50
2021,06,28,16,12,35.40
2021,06,28,16,13,35.30
2021,06,28,16,14,35.30
2021,06,28,16,15,35.30
2021,06,28,16,16,35.50
2021,06,28,16,17,35.50
2021,06,28,16,18,35.50
2021,06,28,16,19,35.60
2021,06,28,16,20,35.60
2021,06,28,16,21,35.70
2021,06,28,16,22,35.80
2021,06,28,16,23,35.90
2021,06,28,16,24,36.00
2021,06,28,16,25,36.00
2021,06,28,16,26,36.00
2021,06,28,16,27,36.00
2021,06,28,16,28,36.10
2021,06,28,16,29,36.30
2021,06,28,16,30,36.40
2021,06,28,16,31,36.50
2021,06,28,16,32,36.60
2021,06,28,16,33,36.40
2021,06,28,16,34,36.30
2021,06,28,16,35,36.00
2021,06,28,16,36,35.70
2021,06,28,16,37,35.40
2021,06,28,16,38,35.10
2021,06,28,16,39,35.00
2021,06,28,16,40,34.80
2021,06,28,16,41,34.90
2021,06,28,16,42,35.00
2021,06,28,16,43,35.10
2021,06,28,16,44,35.20
2021,06,28,16,45,35.30
2021,06,28,16,46,35.40
2021,06,28,16,47,35.50
2021,06,28,16,48,35.40
2021,06,28,16,49,35.30
2021,06,28,16,50,35.20
2021,06,28,16,51,35.20
2021,06,28,16,52,35.10
2021,06,28,16,53,35.10
2021,06,28,16,54,35.10
2021,06,28,16,55,35.20
2021,06,28,16,56,35.20
2021,06,28,16,57,35.30
2021,06,28,16,58,35.40
2021,06,28,16,59,35.50
2021,06,28,17,00,35.60
2021,06,28,17,01,35.70
2021,06,28,17,02,35.70
2021,06,28,17,03,35.60
2021,06,28,17,04,35.60
2021,06,28,17,05,35.60
2021,06,28,17,06,35.60
2021,06,28,17,07,35.60
2021,06,28,17,08,35.60
2021,06,28,17,09,35.60
2021,06,28,17,10,35.60
2021,06,28,17,11,35.60
2021,06,28,17,12,35.60
2021,06,28,17,13,35.70
2021,06,28,17,14,35.70
2021,06,28,17,15,35.70
2021,06,28,17,16,35.90
2021,06,28,17,17,35.90
2021,06,28,17,18,35.90
2021,06,28,17,19,35.70